Location: Gwatt
(46.7204°N, 7.6223°E)
Time: 10:57:45
(UTC+00:00)

Cosmos 1844 Rocket - Pass Details

Date: 18 September 2020
Orbit: 823 x 846 km, 71.0° (Epoch: 24 October)

Event Time Altitude Azimuth Distance (km) Brightness Sun altitude
Rises 17:57:18 0° 146° (SE) 3,346 5.4 -4.7°
Reaches altitude 10° 18:01:31 10° 115° (ESE) 2,423 4.5 -5.4°
Maximum altitude 18:03:19 12° 95° (E) 2,314 4.3 -5.7°
Drops below altitude 10° 18:05:08 10° 76° (ENE) 2,432 4.5 -6.0°
Sets 18:09:21 0° 46° (NE) 3,377 5.5 -6.8°
